EW4498 Weather Reports


Display with metric or nautical units.
time (UTC)temp
F
wind
direction
speed
MPH
gust
MPH
rain 1hr
in
rain 24hr
in
rain mn
in
humidity
%
barometer
mb
20260831114556 70 182 8.0 15.0 0.00 0.13 0.10 77 1006.3
20260831113046 68 196 6.0 13.0 0.00 0.13 0.10 80 1006.3
20260831111642 69 222 7.0 10.0 0.00 0.13 0.10 82 1006.3
20260831110050 68 194 6.0 13.0 0.00 0.13 0.10 82 1006.3
20260831104515 67 199 5.0 14.0 0.02 0.13 0.10 86 1006.3
20260831103056 66 165 5.0 8.0 0.08 0.13 0.10 87 1006.5
20260831101540 65 193 2.0 6.0 0.08 0.13 0.10 91 1006.7
20260831100145 63 212 3.0 10.0 0.08 0.13 0.10 88 1006.9
20260831094643 64 221 5.0 13.0 0.07 0.14 0.09 88 1007.0
20260831093040 67 215 5.0 10.0 0.00 0.07 0.02 82 1006.9
20260831091518 68 193 4.0 10.0 0.00 0.07 0.02 82 1007.0
20260831090011 66 202 4.0 8.0 0.00 0.07 0.02 87 1007.1
20260831084512 65 173 4.0 10.0 0.00 0.07 0.02 87 1007.2
20260831083007 65 197 5.0 9.0 0.00 0.07 0.02 89 1007.2
20260831081508 64 168 5.0 12.0 0.00 0.07 0.02 91 1007.3
20260831080002 63 189 5.0 11.0 0.02 0.07 0.02 93 1007.3
20260831074502 63 163 3.0 8.0 0.02 0.07 0.02 94 1007.3
20260831073058 62 214 3.0 8.0 0.02 0.07 0.02 94 1007.3
20260831071555 61 174 3.0 8.0 0.02 0.07 0.02 93 1007.5
20260831070050 61 170 2.0 6.0 0.01 0.06 0.01 94 1007.7
20260831064548 60 190 2.0 4.0 0.00 0.05 0.00 94 1007.8
20260831063100 59 211 0.0 0.0 0.00 0.05 0.00 94 1007.8
20260831061543 58 213 0.0 0.0 0.00 0.05 0.00 94 1007.7
20260831060041 57 213 0.0 0.0 0.00 0.05 0.00 94 1007.7
20260831054539 56 213 0.0 0.0 0.00 0.05 0.00 94 1007.8
20260831053057 54 213 0.0 0.0 0.00 0.05 0.00 94 1007.9
20260831051537 53 213 0.0 0.0 0.00 0.05 0.00 93 1008.0
20260831050032 52 213 0.0 0.0 0.00 0.05 0.00 93 1008.0
20260831044612 51 213 0.0 0.0 0.00 0.06 0.00 93 1008.0
20260831043028 51 213 0.0 0.0 0.00 0.06 0.00 93 1008.2
20260831041533 50 213 0.0 0.0 0.00 0.06 0.00 92 1008.6
20260831040027 49 213 0.0 0.0 0.00 0.06 0.00 91 1008.4
20260831034523 49 213 0.0 0.0 0.00 0.06 0.00 92 1008.4
20260831033024 50 213 0.0 0.0 0.00 0.06 0.00 91 1008.4
20260831031531 50 213 0.0 0.0 0.00 0.06 0.00 92 1008.5
20260831030020 50 213 0.0 0.0 0.00 0.06 0.00 91 1008.5
20260831024518 50 213 0.0 0.0 0.00 0.06 0.00 91 1008.7
20260831023017 50 213 0.0 0.0 0.00 0.06 0.00 91 1008.7
20260831021518 50 213 0.0 0.0 0.00 0.06 0.00 91 1008.9
20260831020014 50 213 0.0 0.0 0.00 0.06 0.00 90 1009.0
20260831014515 51 213 0.0 0.0 0.00 0.06 0.00 91 1009.0
20260831013010 51 213 0.0 0.0 0.00 0.06 0.00 90 1009.1
20260831011509 52 213 0.0 0.0 0.00 0.06 0.00 91 1008.9
20260831010007 51 213 0.0 0.0 0.00 0.06 0.00 90 1008.9
20260831004506 52 213 0.0 0.0 0.00 0.07 0.00 90 1009.1
20260831003003 53 213 0.0 0.0 0.00 0.07 0.00 89 1009.2
20260831001600 54 213 0.0 0.0 0.00 0.07 0.00 89 1009.2
20260830234601 55 213 0.0 0.0 0.00 0.07 0.00 89 1009.0
20260830233050 56 213 0.0 0.0 0.00 0.07 0.00 90 1009.0
20260830231553 57 213 0.0 3.0 0.00 0.07 0.00 90 1009.2
20260830230050 56 213 1.0 2.0 0.00 0.07 0.00 89 1009.0
20260830224548 57 213 0.0 0.0 0.00 0.07 0.00 88 1008.8
20260830223043 58 213 0.0 0.0 0.00 0.07 0.00 89 1008.9
20260830221539 58 213 0.0 1.0 0.00 0.07 0.00 88 1008.9
20260830220039 59 212 1.0 4.0 0.00 0.07 0.00 87 1009.0
20260830214536 59 220 1.0 4.0 0.00 0.07 0.07 86 1008.9
20260830213048 60 228 1.0 4.0 0.00 0.07 0.07 85 1008.9
20260830211534 61 244 1.0 8.0 0.00 0.07 0.07 85 1008.7
20260830210028 61 225 2.0 5.0 0.00 0.07 0.07 85 1008.6
20260830204519 61 232 2.0 5.0 0.00 0.07 0.07 86 1008.6
20260830203100 61 242 1.0 5.0 0.00 0.07 0.07 87 1008.6
20260830201540 61 238 0.0 0.0 0.00 0.07 0.07 86 1008.6
20260830200138 61 238 0.0 0.0 0.00 0.07 0.07 86 1008.5
20260830194556 62 261 0.0 3.0 0.00 0.07 0.07 85 1008.3
20260830193157 62 242 2.0 4.0 0.00 0.07 0.07 85 1008.3
20260830191611 62 238 1.0 3.0 0.00 0.07 0.07 84 1008.1
20260830190042 62 247 0.0 4.0 0.00 0.07 0.07 83 1007.8
20260830184516 63 254 0.0 4.0 0.00 0.07 0.07 83 1007.6
20260830183003 63 246 2.0 6.0 0.00 0.07 0.07 84 1007.5
20260830181558 64 261 1.0 7.0 0.00 0.07 0.07 84 1007.2
20260830180016 64 315 3.0 8.0 0.00 0.07 0.07 84 1006.9
20260830174618 64 225 2.0 10.0 0.00 0.07 0.07 86 1006.6
20260830171538 65 215 2.0 9.0 0.00 0.07 0.07 86 1006.2
20260830170033 65 261 1.0 9.0 0.00 0.07 0.07 85 1005.9
20260830164643 66 232 2.0 12.0 0.00 0.07 0.07 84 1005.7
20260830163037 66 247 3.0 11.0 0.00 0.07 0.07 84 1005.1
20260830161636 67 235 4.0 13.0 0.00 0.07 0.07 84 1004.7
20260830160105 68 263 5.0 17.0 0.00 0.07 0.07 82 1004.4
20260830154652 68 248 4.0 12.0 0.00 0.07 0.07 84 1004.2
20260830153051 68 200 2.0 12.0 0.00 0.07 0.07 86 1003.9
20260830151513 68 240 4.0 12.0 0.00 0.07 0.07 85 1003.6
20260830150116 67 234 5.0 13.0 0.00 0.07 0.07 87 1003.5
20260830144653 68 229 6.0 14.0 0.00 0.07 0.07 86 1003.0
20260830143047 68 196 7.0 13.0 0.01 0.07 0.07 87 1002.7
20260830141542 68 208 7.0 16.0 0.01 0.07 0.07 88 1002.7
20260830140146 66 249 7.0 18.0 0.01 0.07 0.07 89 1002.6
20260830134542 67 206 6.0 12.0 0.00 0.06 0.06 87 1002.5
20260830133027 66 221 10.0 17.0 0.00 0.06 0.06 87 1002.5
20260830131654 66 205 8.0 17.0 0.00 0.06 0.06 87 1002.5
20260830130045 66 184 8.0 19.0 0.00 0.06 0.06 88 1002.4
20260830124535 66 197 8.0 16.0 0.00 0.06 0.06 89 1002.4
20260830123038 66 178 8.0 16.0 0.00 0.06 0.06 89 1002.2
20260830121635 65 219 7.0 16.0 0.01 0.06 0.06 90 1002.3
20260830120048 65 189 7.0 15.0 0.01 0.06 0.06 90 1002.4